This is the latest recevied weather packets stored in our database for station/object SR9SMR. If no packets are shown the sender has not sent any weather packets the latest 10 day(s).
| Time | Temp. | Humidity | Pressure | Rain* | Wind** | Luminosity | Snow |
|---|---|---|---|---|---|---|---|
| 1777893840 | 17.22° C | 100% | 901.4 hPa | - | - | - | - |
| 1777893783 | 17.22° C | 100% | 901.2 hPa | - | - | - | - |
| 1777893662 | 17.22° C | 100% | 901.5 hPa | - | - | - | - |
| 1777893536 | 17.22° C | 100% | 901.3 hPa | - | - | - | - |
| 1777893227 | 17.78° C | 100% | 902.4 hPa | - | - | - | - |
| 1777892941 | 16.67° C | 100% | 901.3 hPa | - | - | - | - |
| 1777892542 | 17.22° C | 100% | 901.2 hPa | - | - | - | - |
| 1777892418 | 16.67° C | 100% | 901 hPa | - | - | - | - |
| 1777892151 | 16.67° C | 100% | 901.6 hPa | - | - | - | - |
| 1777891897 | 16.67° C | 100% | 901.8 hPa | - | - | - | - |
| 1777891804 | 16.67° C | 100% | 901.1 hPa | - | - | - | - |
| 1777891573 | 16.67° C | 100% | 901.1 hPa | - | - | - | - |
| 1777891500 | 16.67° C | 100% | 901.1 hPa | - | - | - | - |
| 1777891304 | 17.22° C | 100% | 901.2 hPa | - | - | - | - |
| 1777890995 | 16.67° C | 100% | 901.5 hPa | - | - | - | - |
| 1777890685 | 16.67° C | 100% | 901.8 hPa | - | - | - | - |
| 1777890542 | 16.67° C | 100% | 901.8 hPa | - | - | - | - |
| 1777890224 | 16.67° C | 100% | 901.5 hPa | - | - | - | - |
| 1777889916 | 16.11° C | 100% | 901.9 hPa | - | - | - | - |
| 1777889558 | 16.11° C | 100% | 901.6 hPa | - | - | - | - |
| 1777889247 | 16.11° C | 100% | 902.1 hPa | - | - | - | - |
| 1777889192 | 16.67° C | 100% | 902.3 hPa | - | - | - | - |
| 1777889071 | 16.11° C | 100% | 901.9 hPa | - | - | - | - |
| 1777888977 | 16.11° C | 100% | 901.8 hPa | - | - | - | - |
| 1777888944 | 16.11° C | 100% | 901.8 hPa | - | - | - | - |
* Rain since midnight (hover to see other rain measurements)
** Current wind speed in m/s (hover to see current wind gust speed)